This is the latest recevied weather packets stored in our database for station/object KB9MLJ. If no packets are shown the sender has not sent any weather packets the latest 10 day(s).
| Time | Temp. | Humidity | Pressure | Rain* | Wind** | Luminosity | Snow |
|---|---|---|---|---|---|---|---|
| 1777238084 | 20.56° C | 58% | 1014.7 hPa | 0 mm | - | 457 W/m² | - |
| 1777237781 | 20.56° C | 56% | 1014.4 hPa | 0 mm | - | 456 W/m² | - |
| 1777237478 | 20.56° C | 57% | 1014.7 hPa | 0 mm | - | 280 W/m² | - |
| 1777237175 | 20.56° C | 57% | 1015 hPa | 0 mm | - | 513 W/m² | - |
| 1777236872 | 20.56° C | 59% | 1015 hPa | 0 mm | - | 513 W/m² | - |
| 1777236567 | 20.56° C | 56% | 1015 hPa | 0 mm | - | 516 W/m² | - |
| 1777236264 | 20.56° C | 56% | 1014.7 hPa | 0 mm | - | 539 W/m² | - |
| 1777235960 | 20.56° C | 56% | 1015 hPa | 0 mm | - | 563 W/m² | - |
| 1777235656 | 20.56° C | 56% | 1015 hPa | 0 mm | - | 562 W/m² | - |
| 1777235354 | 20.56° C | 57% | 1015.4 hPa | 0 mm | - | 559 W/m² | - |
| 1777235049 | 20.56° C | 57% | 1015.4 hPa | 0 mm | - | 570 W/m² | - |
| 1777234746 | 20.56° C | 55% | 1015.4 hPa | 0 mm | - | 608 W/m² | - |
| 1777234441 | 20° C | 56% | 1015.4 hPa | 0 mm | - | 657 W/m² | - |
| 1777234136 | 20.56° C | 54% | 1015.7 hPa | 0 mm | - | 706 W/m² | - |
| 1777233833 | 20° C | 56% | 1015.7 hPa | 0 mm | - | 539 W/m² | - |
| 1777233530 | 20° C | 57% | 1015.4 hPa | 0 mm | - | 419 W/m² | - |
| 1777233228 | 20° C | 57% | 1015.4 hPa | 0 mm | - | 243 W/m² | - |
| 1777232923 | 20.56° C | 56% | 1015.7 hPa | 0 mm | - | 331 W/m² | - |
| 1777232622 | 20° C | 57% | 1015.7 hPa | 0 mm | - | 534 W/m² | - |
| 1777232320 | 20.56° C | 59% | 1016.1 hPa | 0 mm | - | 502 W/m² | - |
| 1777232016 | 20° C | 58% | 1015.7 hPa | 0 mm | - | 531 W/m² | - |
| 1777231714 | 20° C | 58% | 1015.4 hPa | 0 mm | - | 346 W/m² | - |
| 1777231410 | 20.56° C | 60% | 1015.7 hPa | 0 mm | - | 420 W/m² | - |
| 1777231107 | 20° C | 60% | 1015.4 hPa | 0 mm | - | 696 W/m² | - |
| 1777230802 | 20° C | 57% | 1015.7 hPa | 0 mm | - | 415 W/m² | - |
* Rain latest hour (hover to see other rain measurements)
** Current wind speed in m/s (hover to see current wind gust speed)